{"data":{"norad_id":57432,"intl_designator":"2023-105C","name":"STARLINK-30188","alt_names":[],"object_type":"PAYLOAD","status":"ACTIVE","operator":null,"country":"US","launch_date":"2023-07-24","launch_site_code":"AFETR","launch_vehicle":null,"mission":null,"orbit_class":"UNKNOWN","rcs_meters":null,"size_class":null,"mass_kg":null,"dimensions":null,"purposes":["comms"],"wikipedia_slug":null,"has_3d_model":false,"image_url":null,"decayed_at":null,"tle_current":{"epoch":"2026-05-24T13:35:07.977120Z","epoch_age_seconds":113365,"freshness":"FRESH","line1":"1 57432U 23105C   26144.56606455  .00000074  00000+0  12219-4 0  9995","line2":"2 57432  43.0020 194.9717 0001323 276.8423  83.2278 15.27574705157119","mean_motion":15.27574705,"eccentricity":0.0001323,"inclination_deg":43.002,"raan_deg":194.9717,"arg_perigee_deg":276.8423,"mean_anomaly_deg":83.2278,"bstar":1.2219e-5,"rev_number":15711,"period_min":94.267075468496,"perigee_km":482.15721420217,"apogee_km":483.97268823846,"semimajor_km":6861.2019512203,"source":"CELESTRAK","updated_at":"2026-05-25T13:38:18.319193Z"}}}